Printer-friendly version
Follow the MPC on Twitter Follow the MPC on Facebook The MPC blog
Minor Planet Center

MPEC 2009-K55 : 2009 KD5

The following Minor Planet Electronic Circular may be linked-to from your own Web pages, but must not otherwise be redistributed electronically.

A form allowing access to any MPEC is at the bottom of this page.


Read MPEC 2009-K54 Read MPEC 2009-K56


M.P.E.C. 2009-K55                                Issued 2009 May 27, 15:19 UT

     The Minor Planet Electronic Circulars contain information on unusual
         minor planets and routine data on comets.  They are published
   on behalf of Commission 20 of the International Astronomical Union by the
          Minor Planet Center, Smithsonian Astrophysical Observatory,
                          Cambridge, MA 02138, U.S.A.

             Prepared using the Tamkin Foundation Computer Network

                              MPC@CFA.HARVARD.EDU
          URL http://www.cfa.harvard.edu/iau/mpc.html  ISSN 1523-6714

                                   2009 KD5

Observations:
     K09K05D* C2009 05 26.13113 20 59 29.77 -01 43 48.8          19.2 V EK055J75
     K09K05D  C2009 05 26.14000 20 59 31.38 -01 43 47.0          18.5 V EK055J75
     K09K05D  C2009 05 26.14877 20 59 32.98 -01 43 47.2          18.0 V EK055J75
     K09K05D  C2009 05 27.13776 21 02 40.69 -01 42 45.9          19.0 V EK055J75
     K09K05D  C2009 05 27.14417 21 02 41.91 -01 42 45.3          19.0 V EK055J75
     K09K05D  C2009 05 27.15059 21 02 43.05 -01 42 44.9          18.1 V EK055J75
     K09K05D  C2009 05 27.38904 21 03 29.23 -01 42 31.1          18.6 V EK055703
     K09K05D  C2009 05 27.40611 21 03 32.40 -01 42 29.9          18.1 V EK055703
     K09K05D  C2009 05 27.41454 21 03 33.98 -01 42 29.3          18.4 V EK055703
     K09K05D  C2009 05 27.42134 21 03 35.30 -01 42 29.1                 EK055693
     K09K05D  C2009 05 27.42185 21 03 35.39 -01 42 29.1                 EK055693
     K09K05D  C2009 05 27.42235 21 03 35.48 -01 42 29.1                 EK055693
     K09K05D  C2009 05 27.42285 21 03 35.58 -01 42 29.1                 EK055693
     K09K05D  C2009 05 27.42334 21 03 35.67 -01 42 29.1                 EK055693

Observer details:
693 Catalina Station, Tucson.  Observer C. W. Hergenrother.  1.54-m reflector
    + CCD.
703 Catalina Sky Survey.  Observer A. R. Gibbs.  Measurers E. C. Beshore,
    A. Boattini, G. J. Garradd, A. R. Gibbs, A. D. Grauer, R. E. Hill,
    R. A. Kowalski, S. M. Larson, R. H. McNaught.  0.68-m Schmidt + CCD.
J75 OAM Observatory, La Sagra.  Observers S. Sanchez, J. Nomen, R. Stoss,
    W. K. Y. Yeung, J. Rodriguez, A. Cikota, S. Cikota.  0.45-m f/2.8
    reflector + CCD.

Orbital elements:
2009 KD5                                            PHA, Earth MOID = 0.0074 AU
Epoch 2009 June 18.0 TT = JDT 2455000.5                 MPC
M 289.81760              (2000.0)            P               Q
n   0.79041125     Peri.  282.13277     +0.83584718     -0.47718161
a   1.1585123      Node   106.90863     +0.54498156     +0.78071476
e   0.3209868      Incl.   16.47885     -0.06598936     +0.40346273
P   1.25           H   17.7           G   0.15           U   9
Residuals in seconds of arc
090526 J75  0.1+  0.4-    090527 J75  0.4-  0.2-    090527 693  0.2+  0.2+
090526 J75  0.0   0.7+    090527 703  0.0   0.3-    090527 693  0.1+  0.1+
090526 J75  0.1-  0.1-    090527 703  0.5-  0.1+    090527 693  0.2+  0.1+
090527 J75  0.0   0.6-    090527 703  0.5-  0.3+    090527 693  0.2+  0.1+
090527 J75  0.4+  0.3-    090527 693  0.2+  0.2+

Ephemeris:
2009 KD5                 a,e,i = 1.16, 0.32, 16                  q = 0.7866
Date    TT    R. A. (2000) Decl.     Delta      r     Elong.  Phase     V
2009 05 19    20 38.47   -01 58.2    0.573    1.292   105.9    48.9    18.9
2009 05 29    21 08.73   -01 41.4    0.479    1.248   108.0    50.6    18.5
2009 06 08    21 46.18   -01 56.1    0.392    1.200   108.8    53.2    18.0
2009 06 18    22 36.21   -02 59.2    0.315    1.149   107.2    57.6    17.6
2009 06 28    23 46.42   -05 06.2    0.256    1.097   101.4    65.3    17.3
2009 07 08    01 20.61   -07 51.0    0.226    1.043    90.3    77.2    17.3
2009 07 18    03 03.17   -09 34.0    0.235    0.989    76.6    90.0    17.7
2009 07 28    04 28.54   -09 22.6    0.276    0.936    65.7    98.7    18.3

Timothy B. Spahr             (C) Copyright 2009 MPC           M.P.E.C. 2009-K55

Read MPEC 2009-K54 Read MPEC 2009-K56


MPEC number:

Enter an MPEC number in one of the following forms:

  • 1997-B01 (the full form)
  • J97B01 (the packed version of the full form)
  • B01 (the abbreviated form)

Valid HTML 4.01!